カタログに戻る

FENGYUN 1C DEB

運用中SSO
NORAD 31462·DEBRIS·🇨🇳 China

打ち上げ May 10, 1999 から Taiyuan Satellite Launch Center

Loading…

次のパス (今後24時間)

TLE

最新Source: Space-Track

元期: Sep 11, 2026, 06:37 UTC

1 31462U 99025BVA 26254.27618351  .00000326  00000-0  19536-3 0  9991
2 31462  98.6772 269.5714 0032986 147.0405 274.6630 14.13304478997053

AllMySatでFENGYUN 1C DEBをリアルタイム追跡

Download on the App Store